STARLINK-1805, 46705

Orbit data source: Space-Track

STARLINK-1805, 46705 is a payload satellite owned by SpaceX/Seattle (US) in LEO that was launched on Sun, 18 Oct 2020 UTC via an FALCON 9 launch vehicle from the Air Force Eastern Test Range (AFETR). Payloads include a variety of satellites, spacecraft, and rockets equipped with specific instruments for various scientific and technological missions. These include communications satellites like Starlink; space stations such as the ISS; scientific satellites like the Hubble; Earth observation satellites from companies like Planet Labs, Umbra, and HawkEye 360; GPS; miniature CubeSats for education and research; and military/defense satellites.

Loading next visibility...
STARLINK-1805 details
Identifier
46705, 2020-073AM
Orbit
LEO
Last TLE update7 hours ago
Origin
Flag of USSpaceX/Seattle (US)
ManufacturerSpaceX/Seattle
MissionOperational Commercial Communications
Bus & MotorSTARLINK, Unknown motor
Mass260 kg wet, ~248 kg dry
Launch date (UTC)
2020-10-18 (4 years ago)
Launch vehicle
FALCON 9
Launch site
Air Force Eastern Test Range (AFETR)
Object type
Payload
Rocket body
Debris
Shape & HBRBox + 1 Pan, 8.86 m
Radar Cross Section13.562 m², Large (>1 m²)

Expand to show TLE details & history

TLE from 7 hours ago
0 STARLINK-1805
1 46705U 20073AM  24361.17863585  .00026446  00000-0  17871-2 0  9991
2 46705  53.0542  65.1679 0001676 100.8886 259.2292 15.06411378231304
Epoch: 2024-12-26T04:17Z
Definitive object data (Epoch: 2024-12-26T04:17:14.137Z)
Latitude0.00001°
Longitude-94.30275°
Altitude548.273 km
Speed7.589 km/s
True Right ascension04h 20m 40s
True Declination0° 00' 00"
Sunlit
Object was in full shadow at TLE epoch
Visualization TLE readout
Latitude-30.73824°
Longitude110.73321°
Altitude557.081 km
Speed7.583 km/s
Apparent Right ascension20h 12m 47s
Apparent Declination-41° 13' 30"
Sunlit
Object is in daylight
Visualization observer readout
Local Sidereal Time10:58:58
Azimuth106.129° ESE
Elevation-58.718°
Doppler factor1
Orbital elements
Apogee altitude548.608 km
Perigee altitude546.287 km
Semi-major axis6,925.584 km
Eccentricity0.0001676
Inclination53.0542°
RAAN65.1679°
Arg. of periapsis100.8886°
True anomaly259.21033°
Mean anomaly259.2292°
Eccentric anomaly259.21977°
Mean motion3.76581 °/min
BSTAR0.0017871
Orbital period95.6 mins
Loading maneuver chart data...
Loading historical data...
Loading historical data...
Loading historical data...
Loading historical data...
Loading historical data...
Loading historical data...
Loading historical data...

STARLINK-1805 Visibility forecast

Observer location: undefined°, undefined

Span
Click to sort rows by Start time (UTC) header in descending order
Start Az.
Max El. time (UTC)
Max El. Az.
Max El.
End time (UTC)
End Az.
6 mins2024-12-26 12:41:35.744Z333.488° NNW2024-12-26 12:44:35.744Z25.984° NE21.266°2024-12-26 12:47:35.744Z75.556° E
6 mins2024-12-26 14:21:35.744Z305.468° NW2024-12-26 14:24:35.744Z184.18° SSW43.815°2024-12-26 14:27:35.744Z137.341° SSE
4 mins2024-12-27 05:55:35.744Z159.747° S2024-12-27 05:57:35.744Z121.979° SE18.71°2024-12-27 05:59:35.744Z88.263° E
6 mins2024-12-27 07:33:35.744Z248.728° W2024-12-27 07:36:35.744Z330.572° NNW39.899°2024-12-27 07:39:35.744Z40.175° NE
|